Location: Antioch Baptist Church
(32.6696°N, 85.7327°W)
Time: 11:43:45
(UTC+00:00)

Cosmos 921 Rocket - Pass Details

Date: 14 July 2020
Orbit: 572 x 631 km, 75.8° (Epoch: 08 August)

Event Time Altitude Azimuth Distance (km) Brightness Sun altitude
Rises 08:37:16 0° 342° (NNW) 2,872 6.9 -22.5°
Reaches altitude 10° 08:39:32 10° 339° (NNW) 1,954 5.9 -22.2°
Maximum altitude 08:43:51 65° 258° (WSW) 656 2.9 -21.5°
Enters shadow 08:44:01 64° 243° (WSW) 659 2.9 -21.5°
